Stündliche Wetter Labkovo

Heute, 14 Mai, Freitag

Zeit Temperatur Niederschläge Wind Luftdruck Luftfeuchtigkeit
00:00 +8°C° 0 mm 3 m/S 741 mmHg 96%
01:00 +8°C° 0 mm 2 m/S 741 mmHg 97%
02:00 +7°C° 0 mm 2 m/S 741 mmHg 98%
03:00 +7°C° 0 mm 2 m/S 741 mmHg 97%
04:00 +7°C° 0 mm 2 m/S 741 mmHg 96%
05:00 +7°C° 0 mm 2 m/S 741 mmHg 95%
06:00 +8°C° 0 mm 3 m/S 741 mmHg 91%
07:00 +9°C° 0 mm 3 m/S 741 mmHg 88%
08:00 +10°C° 0 mm 4 m/S 741 mmHg 84%
09:00 +10°C° 0.1 mm 4 m/S 741 mmHg 85%
10:00 +11°C° 0.1 mm 4 m/S 741 mmHg 86%
11:00 +10°C° 0.1 mm 5 m/S 741 mmHg 87%
12:00 +12°C° 0.1 mm 5 m/S 741 mmHg 84%
13:00 +13°C° 0.1 mm 4 m/S 740 mmHg 81%
14:00 +14°C° 0.1 mm 4 m/S 740 mmHg 77%
15:00 +14°C° 0.4 mm 4 m/S 740 mmHg 80%
16:00 +14°C° 0.4 mm 4 m/S 740 mmHg 83%
17:00 +13°C° 0.4 mm 4 m/S 740 mmHg 85%
18:00 +13°C° 0.1 mm 4 m/S 740 mmHg 88%
19:00 +12°C° 0.1 mm 3 m/S 740 mmHg 90%
20:00 +12°C° 0.1 mm 3 m/S 740 mmHg 93%
21:00 +12°C° 0 mm 2 m/S 740 mmHg 94%
22:00 +10°C° 0 mm 2 m/S 740 mmHg 95%
23:00 +10°C° 0 mm 2 m/S 740 mmHg 96%

Morgen, 15 Mai, Samstag

Zeit Temperatur Niederschläge Wind Luftdruck Luftfeuchtigkeit
00:00 +10°C° 0 mm 2 m/S 740 mmHg 96%
01:00 +11°C° 0 mm 1 m/S 740 mmHg 95%
02:00 +10°C° 0 mm 1 m/S 739 mmHg 95%
03:00 +11°C° 0 mm 1 m/S 739 mmHg 94%
04:00 +11°C° 0 mm 1 m/S 739 mmHg 94%
05:00 +11°C° 0 mm 1 m/S 739 mmHg 93%
06:00 +13°C° 0 mm 1 m/S 739 mmHg 88%
07:00 +14°C° 0 mm 1 m/S 739 mmHg 83%
08:00 +16°C° 0 mm 1 m/S 739 mmHg 77%
09:00 +18°C° 0.2 mm 1 m/S 739 mmHg 73%
10:00 +19°C° 0.2 mm 1 m/S 739 mmHg 69%
11:00 +20°C° 0.2 mm 1 m/S 739 mmHg 65%
12:00 +20°C° 0.9 mm 1 m/S 739 mmHg 66%
13:00 +21°C° 0.9 mm 1 m/S 739 mmHg 67%
14:00 +21°C° 0.9 mm 1 m/S 739 mmHg 68%
15:00 +20°C° 1.1 mm 1 m/S 739 mmHg 72%
16:00 +19°C° 1.1 mm 1 m/S 739 mmHg 76%
17:00 +19°C° 1.1 mm 1 m/S 739 mmHg 80%
18:00 +17°C° 0.4 mm 2 m/S 739 mmHg 83%
19:00 +16°C° 0.4 mm 2 m/S 739 mmHg 86%
20:00 +15°C° 0.4 mm 2 m/S 739 mmHg 90%
21:00 +14°C° 0 mm 2 m/S 739 mmHg 91%
22:00 +13°C° 0 mm 2 m/S 739 mmHg 92%
23:00 +12°C° 0 mm 2 m/S 740 mmHg 93%

übermorgen, 16 Mai, Sonntag

Zeit Temperatur Niederschläge Wind Luftdruck Luftfeuchtigkeit
00:00 +10°C° 0 mm 2 m/S 740 mmHg 93%
01:00 +9°C° 0 mm 2 m/S 740 mmHg 94%
02:00 +9°C° 0 mm 2 m/S 740 mmHg 94%
03:00 +9°C° 0 mm 2 m/S 740 mmHg 95%
04:00 +9°C° 0 mm 2 m/S 741 mmHg 96%
05:00 +9°C° 0 mm 2 m/S 741 mmHg 97%
06:00 +12°C° 0 mm 2 m/S 741 mmHg 91%
07:00 +13°C° 0 mm 2 m/S 741 mmHg 86%
08:00 +15°C° 0 mm 2 m/S 742 mmHg 80%
09:00 +16°C° 0 mm 2 m/S 742 mmHg 73%
10:00 +18°C° 0 mm 2 m/S 742 mmHg 66%
11:00 +20°C° 0 mm 1 m/S 742 mmHg 59%
12:00 +21°C° 0.1 mm 1 m/S 742 mmHg 56%
13:00 +22°C° 0.1 mm 1 m/S 742 mmHg 53%
14:00 +22°C° 0.1 mm 1 m/S 742 mmHg 50%
15:00 +22°C° 0.1 mm 1 m/S 742 mmHg 55%
16:00 +21°C° 0.1 mm 1 m/S 742 mmHg 60%
17:00 +20°C° 0.1 mm 1 m/S 742 mmHg 65%
18:00 +19°C° 0.1 mm 1 m/S 742 mmHg 71%
19:00 +16°C° 0.1 mm 1 m/S 742 mmHg 77%
20:00 +15°C° 0.1 mm 2 m/S 742 mmHg 84%
21:00 +14°C° 0 mm 2 m/S 742 mmHg 86%
22:00 +14°C° 0 mm 2 m/S 742 mmHg 88%
23:00 +13°C° 0 mm 2 m/S 742 mmHg 90%

17 Mai, Montag

Zeit Temperatur Niederschläge Wind Luftdruck Luftfeuchtigkeit
00:00 +12°C° 0 mm 2 m/S 742 mmHg 92%
01:00 +12°C° 0 mm 2 m/S 742 mmHg 93%
02:00 +12°C° 0 mm 2 m/S 742 mmHg 94%
03:00 +12°C° 0 mm 2 m/S 742 mmHg 94%
04:00 +12°C° 0 mm 2 m/S 742 mmHg 93%
05:00 +12°C° 0 mm 2 m/S 741 mmHg 93%
06:00 +13°C° 0 mm 3 m/S 741 mmHg 86%
07:00 +16°C° 0 mm 3 m/S 741 mmHg 79%
08:00 +17°C° 0 mm 4 m/S 741 mmHg 72%
09:00 +19°C° 0.1 mm 5 m/S 741 mmHg 69%
10:00 +20°C° 0.1 mm 5 m/S 741 mmHg 66%
11:00 +21°C° 0.1 mm 5 m/S 741 mmHg 63%
12:00 +19°C° 0.5 mm 5 m/S 741 mmHg 71%
13:00 +17°C° 0.5 mm 5 m/S 741 mmHg 79%
14:00 +15°C° 0.5 mm 4 m/S 741 mmHg 87%
15:00 +15°C° 0.7 mm 4 m/S 741 mmHg 89%
16:00 +16°C° 0.7 mm 3 m/S 740 mmHg 90%
17:00 +14°C° 0.7 mm 3 m/S 740 mmHg 92%
18:00 +14°C° 0.7 mm 2 m/S 741 mmHg 93%
19:00 +14°C° 0.7 mm 2 m/S 741 mmHg 95%
20:00 +13°C° 0.7 mm 1 m/S 741 mmHg 96%
21:00 +12°C° 0 mm 1 m/S 741 mmHg 97%
22:00 +12°C° 0 mm 1 m/S 741 mmHg 97%
23:00 +10°C° 0 mm 2 m/S 741 mmHg 97%

18 Mai, Dienstag

Zeit Temperatur Niederschläge Wind Luftdruck Luftfeuchtigkeit
00:00 +10°C° 0 mm 2 m/S 741 mmHg 97%
01:00 +10°C° 0 mm 2 m/S 740 mmHg 96%
02:00 +9°C° 0 mm 2 m/S 740 mmHg 96%
03:00 +9°C° 0 mm 2 m/S 740 mmHg 96%
04:00 +9°C° 0 mm 2 m/S 739 mmHg 96%
05:00 +10°C° 0 mm 1 m/S 739 mmHg 96%
06:00 +10°C° 0 mm 2 m/S 739 mmHg 92%
07:00 +12°C° 0 mm 2 m/S 739 mmHg 89%
08:00 +13°C° 0 mm 2 m/S 739 mmHg 86%
09:00 +14°C° 0 mm 2 m/S 739 mmHg 81%
10:00 +15°C° 0 mm 2 m/S 739 mmHg 77%
11:00 +16°C° 0 mm 2 m/S 739 mmHg 72%
12:00 +16°C° 0 mm 2 m/S 738 mmHg 71%
13:00 +16°C° 0 mm 2 m/S 738 mmHg 69%
14:00 +17°C° 0 mm 2 m/S 738 mmHg 68%
15:00 +17°C° 0 mm 2 m/S 738 mmHg 67%
16:00 +18°C° 0 mm 1 m/S 737 mmHg 65%
17:00 +18°C° 0 mm 1 m/S 737 mmHg 64%
18:00 +16°C° 0 mm 1 m/S 737 mmHg 70%
19:00 +15°C° 0 mm 1 m/S 737 mmHg 75%
20:00 +14°C° 0 mm 1 m/S 737 mmHg 81%
21:00 +13°C° 0 mm 1 m/S 737 mmHg 84%
22:00 +12°C° 0 mm 1 m/S 737 mmHg 86%
23:00 +12°C° 0 mm 1 m/S 737 mmHg 89%

19 Mai, Mittwoch

Zeit Temperatur Niederschläge Wind Luftdruck Luftfeuchtigkeit
00:00 +12°C° 0 mm 1 m/S 737 mmHg 89%
01:00 +11°C° 0 mm 1 m/S 737 mmHg 90%
02:00 +11°C° 0 mm 1 m/S 737 mmHg 91%
03:00 +11°C° 0.1 mm 1 m/S 737 mmHg 91%
04:00 +9°C° 0.1 mm 2 m/S 737 mmHg 91%
05:00 +9°C° 0.1 mm 2 m/S 737 mmHg 91%
06:00 +10°C° 0.2 mm 2 m/S 738 mmHg 88%
07:00 +10°C° 0.2 mm 3 m/S 738 mmHg 85%
08:00 +11°C° 0.2 mm 3 m/S 738 mmHg 82%
09:00 +10°C° 0.9 mm 3 m/S 739 mmHg 85%
10:00 +10°C° 0.9 mm 4 m/S 740 mmHg 87%
11:00 +10°C° 0.9 mm 4 m/S 740 mmHg 90%
12:00 +11°C° 0.3 mm 4 m/S 741 mmHg 86%
13:00 +12°C° 0.3 mm 4 m/S 741 mmHg 81%
14:00 +13°C° 0.3 mm 4 m/S 742 mmHg 77%
15:00 +13°C° 0.1 mm 4 m/S 742 mmHg 72%
16:00 +14°C° 0.1 mm 3 m/S 742 mmHg 68%
17:00 +14°C° 0.1 mm 3 m/S 742 mmHg 63%
18:00 +14°C° 0 mm 3 m/S 743 mmHg 67%
19:00 +14°C° 0 mm 2 m/S 743 mmHg 70%
20:00 +13°C° 0 mm 2 m/S 743 mmHg 74%
21:00 +10°C° 0 mm 2 m/S 744 mmHg 79%
22:00 +9°C° 0 mm 2 m/S 744 mmHg 85%
23:00 +8°C° 0 mm 2 m/S 745 mmHg 90%
Mehr zeigen

Wir brauchen deine Erlaubnis

Meteoprog und unser Service Anbieter werden persönliche Daten aufbewahren, so wie Cookies, Geräte Bezeichnung oder ähnliche Technologien von deinem Gerät und Prozess, so wie Persönliche Daten Inhalte und Werbungen, genauso wie social Media und den Verkehr zu analysieren.

  • Aufbewahrung und/oder Zugang zu deiner Geräte Informationen.

    Cookies, Geräte Bezeichnung oder andere Informationen, können aufbewahrt oder Zugang zu deinem Gerät erhalten, für den Grund, der oben angegeben wird.

  • Personalisierte Werbung und Inhalte, Messungen, Einblick in das Publikum und Produkt Entwicklung.

    Werbungen und Inhalte können personalisiert werden, basierend auf ein Profil. Mehr Daten können besser personalisierte Werbungen und Inhalte hinzufügen. Werbung und Inhalte können gezeigt und gemessen werden. Einblicke über das Publikum, welche die Werbung gesehen haben und den Inhalt, können abgeleitet werden. So wie Daten können genutzt werden, um es zu verbessern oder die Benutzer Erfahrung zu verbessern das System und die Software.

Wenn du “Ich stimme zu” klickst, erlaubst du uns, die Cookies zu benutzen die Geräte Bezeichnung, den Web oder ähnliche Technologien zu benutzen. Deine Settings, können in deinem Gerät bei deinem Browser geändert werden.

Für den bestimmten Zweck, berechtigten Interessen beruhen darauf, mehr als auf den Inhalt. Du kannst mehr darüber in unseren Privaten und Cookie Politik lesen.